Time,TemperatureF,DewpointF,PressureIn,WindDirection,WindDirectionDegrees,WindSpeedMPH,WindSpeedGustMPH,Humidity,HourlyPrecipIn,Conditions,Clouds,dailyrainin,SoftwareType,DateUTC
2013-05-05 00:09:00,53.4,50.0,29.60,WSW,253,0.0,1.0,87,0.00,,,0.00,weatherlink.com 1.10,2013-05-05 07:09:00,
2013-05-05 00:24:00,53.8,49.0,29.60,West,264,1.0,3.0,85,0.00,,,0.00,weatherlink.com 1.10,2013-05-05 07:24:00,
2013-05-05 00:39:00,54.0,50.0,29.60,WNW,303,0.0,5.0,85,0.00,,,0.00,weatherlink.com 1.10,2013-05-05 07:39:00,
2013-05-05 00:54:00,54.1,49.0,29.60,WSW,241,0.0,7.0,84,0.00,,,0.00,weatherlink.com 1.10,2013-05-05 07:54:00,
2013-05-05 01:10:00,54.1,49.0,29.61,SW,235,2.0,3.0,84,0.00,,,0.00,weatherlink.com 1.10,2013-05-05 08:10:00,
2013-05-05 01:25:00,54.1,49.0,29.61,West,261,1.0,4.0,84,0.00,,,0.00,weatherlink.com 1.10,2013-05-05 08:25:00,
2013-05-05 01:40:00,54.1,49.0,29.61,SW,234,0.0,4.0,84,0.00,,,0.00,weatherlink.com 1.10,2013-05-05 08:40:00,
2013-05-05 01:55:00,54.0,49.0,29.61,SW,232,0.0,2.0,84,0.00,,,0.00,weatherlink.com 1.10,2013-05-05 08:55:00,
2013-05-05 02:10:00,54.1,49.0,29.61,SW,234,0.0,3.0,84,0.00,,,0.00,weatherlink.com 1.10,2013-05-05 09:10:00,
2013-05-05 02:25:00,54.1,49.0,29.60,WSW,246,0.0,2.0,84,0.00,,,0.00,weatherlink.com 1.10,2013-05-05 09:25:00,
2013-05-05 02:40:00,54.1,49.0,29.60,SSW,203,1.0,2.0,84,0.00,,,0.00,weatherlink.com 1.10,2013-05-05 09:40:00,
2013-05-05 02:55:00,54.1,49.0,29.60,WSW,244,0.0,3.0,83,0.00,,,0.00,weatherlink.com 1.10,2013-05-05 09:55:00,
2013-05-05 03:10:00,54.3,49.0,29.60,SSW,200,0.0,5.0,83,0.00,,,0.00,weatherlink.com 1.10,2013-05-05 10:10:00,
2013-05-05 03:25:00,54.3,49.0,29.60,SW,221,0.0,3.0,83,0.00,,,0.00,weatherlink.com 1.10,2013-05-05 10:25:00,
2013-05-05 03:40:00,54.3,49.0,29.60,WSW,254,0.0,2.0,83,0.00,,,0.00,weatherlink.com 1.10,2013-05-05 10:40:00,
2013-05-05 03:55:00,54.4,49.0,29.60,SW,219,0.0,1.0,83,0.00,,,0.00,weatherlink.com 1.10,2013-05-05 10:55:00,
2013-05-05 04:10:00,54.4,49.0,29.61,SW,219,0.0,0.0,83,0.00,,,0.00,weatherlink.com 1.10,2013-05-05 11:10:00,
2013-05-05 04:25:00,54.5,49.0,29.61,SW,216,0.0,3.0,83,0.00,,,0.00,weatherlink.com 1.10,2013-05-05 11:25:00,
2013-05-05 04:40:00,54.5,49.0,29.61,SW,219,0.0,3.0,82,0.00,,,0.00,weatherlink.com 1.10,2013-05-05 11:40:00,
2013-05-05 04:55:00,54.5,49.0,29.61,SSW,207,0.0,2.0,83,0.00,,,0.00,weatherlink.com 1.10,2013-05-05 11:55:00,
2013-05-05 05:10:00,54.5,49.0,29.61,SW,223,0.0,1.0,83,0.00,,,0.00,weatherlink.com 1.10,2013-05-05 12:10:00,
2013-05-05 05:25:00,54.6,49.0,29.61,SW,233,0.0,4.0,82,0.00,,,0.00,weatherlink.com 1.10,2013-05-05 12:25:00,
2013-05-05 05:40:00,54.6,49.0,29.61,SW,225,0.0,6.0,82,0.00,,,0.00,weatherlink.com 1.10,2013-05-05 12:40:00,
2013-05-05 05:55:00,54.7,49.0,29.62,SW,236,0.0,1.0,82,0.00,,,0.00,weatherlink.com 1.10,2013-05-05 12:55:00,
2013-05-05 06:10:00,54.7,49.0,29.62,SSW,199,0.0,4.0,82,0.00,,,0.00,weatherlink.com 1.10,2013-05-05 13:10:00,
2013-05-05 06:25:00,54.7,49.0,29.63,SSE,153,0.0,4.0,82,0.00,,,0.00,weatherlink.com 1.10,2013-05-05 13:25:00,
2013-05-05 06:40:00,54.7,49.0,29.63,SSW,207,1.0,3.0,82,0.00,,,0.00,weatherlink.com 1.10,2013-05-05 13:40:00,
2013-05-05 06:55:00,54.8,49.0,29.64,SW,218,0.0,5.0,82,0.00,,,0.00,weatherlink.com 1.10,2013-05-05 13:55:00,
2013-05-05 07:10:00,54.9,50.0,29.64,WSW,241,0.0,3.0,82,0.00,,,0.00,weatherlink.com 1.10,2013-05-05 14:10:00,
2013-05-05 07:25:00,55.0,50.0,29.65,SSW,205,0.0,3.0,82,0.00,,,0.00,weatherlink.com 1.10,2013-05-05 14:25:00,
2013-05-05 07:40:00,55.2,50.0,29.65,SSW,209,0.0,2.0,81,0.00,,,0.00,weatherlink.com 1.10,2013-05-05 14:40:00,
2013-05-05 07:55:00,55.3,50.0,29.66,SW,231,0.0,3.0,81,0.00,,,0.00,weatherlink.com 1.10,2013-05-05 14:55:00,
2013-05-05 08:10:00,55.5,50.0,29.66,West,273,2.0,4.0,81,0.00,,,0.00,weatherlink.com 1.10,2013-05-05 15:10:00,
2013-05-05 08:25:00,55.9,50.0,29.66,WSW,242,1.0,5.0,80,0.00,,,0.00,weatherlink.com 1.10,2013-05-05 15:25:00,
2013-05-05 08:40:00,56.1,50.0,29.67,SW,230,0.0,5.0,80,0.00,,,0.00,weatherlink.com 1.10,2013-05-05 15:40:00,
2013-05-05 08:55:00,56.3,50.0,29.67,West,261,4.0,6.0,78,0.00,,,0.00,weatherlink.com 1.10,2013-05-05 15:55:00,
2013-05-05 09:10:00,56.1,50.0,29.68,SW,224,0.0,5.0,79,0.00,,,0.00,weatherlink.com 1.10,2013-05-05 16:10:00,
2013-05-05 09:25:00,56.4,50.0,29.68,SSW,212,0.0,4.0,79,0.00,,,0.00,weatherlink.com 1.10,2013-05-05 16:25:00,
2013-05-05 09:40:00,56.9,50.0,29.68,SSW,205,0.0,4.0,79,0.00,,,0.00,weatherlink.com 1.10,2013-05-05 16:40:00,
2013-05-05 09:55:00,57.3,50.0,29.68,WSW,242,0.0,11.0,76,0.00,,,0.00,weatherlink.com 1.10,2013-05-05 16:55:00,
2013-05-05 10:10:00,57.4,50.0,29.69,South,184,2.0,5.0,75,0.00,,,0.00,weatherlink.com 1.10,2013-05-05 17:10:00,
2013-05-05 10:25:00,57.5,50.0,29.69,WSW,238,4.0,5.0,76,0.00,,,0.00,weatherlink.com 1.10,2013-05-05 17:25:00,
2013-05-05 10:40:00,57.3,50.0,29.70,SW,215,0.0,7.0,76,0.00,,,0.00,weatherlink.com 1.10,2013-05-05 17:40:00,
2013-05-05 10:55:00,57.3,50.0,29.70,SW,217,0.0,10.0,77,0.00,,,0.00,weatherlink.com 1.10,2013-05-05 17:55:00,
2013-05-05 11:10:00,57.3,51.0,29.70,SSW,201,1.0,8.0,78,0.00,,,0.00,weatherlink.com 1.10,2013-05-05 18:10:00,
2013-05-05 11:25:00,56.9,51.0,29.70,SSW,202,0.0,5.0,81,0.00,,,0.00,weatherlink.com 1.10,2013-05-05 18:25:00,
2013-05-05 11:40:00,59.1,52.0,29.70,SW,227,1.0,8.0,76,0.00,,,0.00,weatherlink.com 1.10,2013-05-05 18:40:00,
2013-05-05 11:55:00,59.5,51.0,29.71,WSW,247,1.0,9.0,74,0.00,,,0.00,weatherlink.com 1.10,2013-05-05 18:55:00,
2013-05-05 12:11:00,61.9,52.0,29.70,West,265,10.0,10.0,71,0.00,,,0.00,weatherlink.com 1.10,2013-05-05 19:11:00,
2013-05-05 12:26:00,62.2,52.0,29.70,WSW,241,0.0,13.0,69,0.00,,,0.00,weatherlink.com 1.10,2013-05-05 19:26:00,
2013-05-05 12:41:00,61.6,50.0,29.70,SSE,168,5.0,15.0,67,0.00,,,0.00,weatherlink.com 1.10,2013-05-05 19:41:00,
2013-05-05 12:56:00,61.7,51.0,29.69,WSW,250,2.0,8.0,68,0.00,,,0.00,weatherlink.com 1.10,2013-05-05 19:56:00,
2013-05-05 13:11:00,60.0,51.0,29.70,WSW,246,4.0,10.0,72,0.00,,,0.00,weatherlink.com 1.10,2013-05-05 20:11:00,
2013-05-05 13:26:00,62.1,52.0,29.70,SW,217,1.0,8.0,70,0.00,,,0.00,weatherlink.com 1.10,2013-05-05 20:26:00,
2013-05-05 13:41:00,63.8,52.0,29.69,SW,216,3.0,9.0,66,0.00,,,0.00,weatherlink.com 1.10,2013-05-05 20:41:00,
2013-05-05 13:56:00,63.9,52.0,29.70,SW,225,10.0,11.0,65,0.00,,,0.00,weatherlink.com 1.10,2013-05-05 20:56:00,
2013-05-05 14:11:00,63.1,51.0,29.70,West,273,3.0,12.0,66,0.00,,,0.00,weatherlink.com 1.10,2013-05-05 21:11:00,
2013-05-05 14:26:00,62.9,52.0,29.69,SW,236,1.0,11.0,67,0.00,,,0.00,weatherlink.com 1.10,2013-05-05 21:26:00,
2013-05-05 14:41:00,62.5,52.0,29.70,WSW,242,0.0,9.0,68,0.00,,,0.00,weatherlink.com 1.10,2013-05-05 21:41:00,
2013-05-05 14:56:00,62.6,51.0,29.70,WSW,251,2.0,10.0,66,0.00,,,0.00,weatherlink.com 1.10,2013-05-05 21:56:00,
2013-05-05 15:11:00,62.4,51.0,29.70,WSW,238,2.0,6.0,66,0.00,,,0.00,weatherlink.com 1.10,2013-05-05 22:11:00,
2013-05-05 23:13:00,56.5,51.0,29.78,SW,229,0.0,1.0,81,0.00,,,0.00,weatherlink.com 1.10,2013-05-06 06:13:00,
2013-05-05 23:28:00,56.5,51.0,29.79,West,277,0.0,1.0,81,0.00,,,0.00,weatherlink.com 1.10,2013-05-06 06:28:00,
2013-05-05 23:43:00,56.2,50.0,29.79,WNW,292,0.0,2.0,81,0.00,,,0.00,weatherlink.com 1.10,2013-05-06 06:43:00,
2013-05-05 23:58:00,56.2,51.0,29.80,WNW,290,0.0,1.0,82,0.00,,,0.00,weatherlink.com 1.10,2013-05-06 06:58:00,